Starlink 5384

operational
NORAD ID: 54836 Int'l Des: 2022-177 Owner: SPXS Country: US Constellation: starlink
LEOCIRCULAR

Über Starlink 5384

Beschreibung wird geladen...

Live-Position

3D-Globus wird geladen...

Nächste Überflüge

Höhenverlauf

Altitude vs Time

uPlot chart will show altitude changes over time

Zweizeiliger Elementsatz

1 54836U 22177S 25302.50219421 .00001045 00000-0 92429-4 0 9991
2 54836 43.0028 125.9622 0001126 269.5916 90.4797 15.02526935157232
Epoch: 29. Okt. 2025 • Age: 15 hours

Aktueller Status

Höhe 565.0 km
Geschwindigkeit 7.58 km/s
Subsatellitenpunkt -25.65°S, 116.15°W
Startdatum 28. Dez. 2022
Alter 2.8 years
Typ internet

Technische Details

Klassifizierung Payload
Masse 305.00 kg
Trockenmasse 290.00 kg
Gesamtmasse 305.00 kg
Länge 0.20 m
Durchmesser 2.80 m
Spannweite 9.00 m
Form Box + pan
Hersteller SPXS
Bus-Typ Starlink
Phasenstatus In Orbit
Besitzer/Staat SPXS/US

Große Konstellationen

Loading constellations...